Home > Weather > Stange > Past weeks

Flag for Norway Past Weather in Stange, Norway — Yesterday and Last 2 Weeks

Now
37 °F

Chilly.


Feels Like: 37 °F
Forecast: 50 / 58 °F
Wind: No wind

Location: Haugedalshogda

Current Time: Aug 28, 2016 at 2:42:12 AM

Latest Report: Aug 28, 2016 at 2:00 AM


Visibility: N/A

Pressure: 30.19 "Hg

Humidity: N/A

Dew Point: N/A

Location of StangeLocation

Past Weather in Stange — Graph

°F

Stange Temperature Yesterday

Maximum temperature yesterday: 69 °F (at 3:00 PM)
Minimum temperature yesterday: 46 °F (at 11:00 PM)
Average temperature yesterday: 58 °F

High & Low Weather Summary for the Past Weeks

 TemperatureHumidityPressure
High76 °F (Aug 17, 4:00 PM)100% (Aug 13, 8:00 AM)30.31 "Hg (Aug 13, 8:00 AM)
Low31 °F (Aug 15, 5:00 AM)24% (Aug 17, 5:00 PM)29.53 "Hg (Aug 13, 1:00 AM)
Average57 °F68%30.01 "Hg
* Reported Aug 13 1:00 AM — Aug 28 1:00 AM, Stange, Weather by CustomWeather, © 2016

Note: Actual official high and low records may vary slightly from our data, if they occured in-between our weather recording intervals... More about our weather records

Advertising

Stange Weather History for the Previous 24 Hours

Scroll right to see more
 ConditionsComfort  
Time TempWeatherWind HumidityBarometerVisibility
1:00 AM
Sun, Aug 28
38 °FChilly.1 mph99%30.16 "HgN/A
12:00 AM41 °FQuite cool.1 mph92%30.15 "HgN/A
11:00 PM
Sat, Aug 27
46 °FCool.1 mph89%30.12 "HgN/A
10:00 PM48 °FCool.1 mph83%30.10 "HgN/A
9:00 PM53 °FCool.No wind74%30.08 "HgN/A
8:00 PM60 °FCool.1 mph62%30.05 "HgN/A
7:00 PM62 °FMild.1 mph52%30.02 "HgN/A
6:00 PM68 °FMild.5 mph31%30.01 "HgN/A
5:00 PM68 °FMild.6 mph29%30.01 "HgN/A
4:00 PM69 °FMild.6 mph32%29.99 "HgN/A
3:00 PM69 °FMild.5 mph30%29.98 "HgN/A
2:00 PM68 °FMild.7 mph31%29.97 "HgN/A
1:00 PM64 °FMild.8 mph34%29.96 "HgN/A
12:00 PM65 °FMild.7 mph37%29.93 "HgN/A
11:00 AM63 °FMild.7 mph36%29.92 "HgN/A
10:00 AM63 °FMild.3 mph42%29.89 "HgN/A
9:00 AM57 °FRefreshingly cool.2 mph54%29.87 "HgN/A
8:00 AM56 °FCool.3 mph64%29.84 "HgN/A
7:00 AM54 °FCool.1 mph65%29.83 "HgN/A
6:00 AM49 °FCool.2 mph75%29.80 "HgN/A
5:00 AM52 °FCool.2 mph67%29.78 "HgN/A
4:00 AM52 °FCool.3 mph70%29.76 "HgN/A
3:00 AM53 °FCool.6 mph69%29.74 "HgN/A
2:00 AM56 °FCool.6 mph61%29.71 "HgN/A
Weather by CustomWeather, © 2016

See weather overviewHow to use our weather pages